Flag for Germany Weather past 2 weeks in Mosbach, Baden-Württemberg, Germany

Now
36 °F

Overcast.


Feels Like: 34 °F
Forecast: 31 / 37 °F
Wind: 3 mph from Northwest

Location: Oehringen

Current Time: Dec 26, 2014 at 3:28:32 PM

Latest Report: Dec 26, 2014 at 3:00 PM


Visibility: 9 mi

Pressure: 30.39 "Hg

Humidity: 90%

Dew point: 34 °F

Location of MosbachLocation

Historic Weather in Mosbach — Graph

°F

Mosbach temperature yesterday

Maximum temperature yesterday: 46 °F (at 12:00 AM)
Minimum temperature yesterday: 37 °F (at 9:00 AM)
Average temperature yesterday: 41 °F

Past Weeks' High & Low Weather Summary

 TemperatureHumidityPressure
High53 °F (Dec 18, 8:00 PM)100% (Dec 15, 4:00 AM)30.54 "Hg (Dec 15, 4:00 AM)
Low32 °F (Dec 26, 8:00 AM)57% (Dec 13, 10:00 AM)29.72 "Hg (Dec 12, 6:00 PM)
Average44 °F84%30.12 "Hg
* Reported Dec 11 2:00 PM — Dec 26 2:00 PM, Mosbach, Weather by CustomWeather, © 2014

Note: Actual official high and low records may vary slightly from our data, if they occured in-between our weather recording intervals... More about our weather records

Advertising

Mosbach weather history for previous 24 hours

 ConditionsComfort  
Time TempWeatherWind HumidityBarometerVisibility
2:00 PM
Dec 26
36 °FLight rain. Overcast.5 mph88%30.40 "Hg4 mi
1:00 PM37 °FDrizzle. Low clouds.6 mph88%30.41 "Hg6 mi
12:00 PM36 °FLow clouds.5 mph90%30.42 "Hg6 mi
11:00 AM35 °FFog.3 mph95%30.44 "Hg3 mi
10:00 AM34 °FFog.1 mph96%30.44 "Hg3 mi
9:00 AM32 °FFog.2 mph98%30.44 "Hg3 mi
8:00 AM32 °FFog.1 mph98%30.43 "Hg2 mi
7:00 AM33 °FFog.2 mph97%30.42 "Hg4 mi
6:00 AM33 °FFog.2 mph97%30.41 "Hg3 mi
5:00 AM34 °FFog.2 mph98%30.40 "Hg4 mi
4:00 AM35 °FOvercast.2 mph97%30.40 "Hg7 mi
3:00 AM35 °FLow clouds.2 mph95%30.40 "Hg6 mi
2:00 AM36 °FLow clouds.2 mph96%30.39 "Hg6 mi
1:00 AM36 °FLight rain. Low clouds.5 mph95%30.38 "Hg4 mi
12:00 AM37 °FOvercast.6 mph89%30.38 "Hg14 mi
11:00 PM
Dec 25
38 °FDrizzle. Overcast.7 mph90%30.37 "Hg9 mi
10:00 PM40 °FLight rain. Overcast.7 mph81%30.35 "Hg7 mi
9:00 PM40 °FOvercast.8 mph76%30.34 "Hg19 mi
8:00 PM40 °FOvercast.6 mph74%30.34 "Hg25 mi
7:00 PM40 °FOvercast.6 mph71%30.33 "Hg31 mi
6:00 PM40 °FOvercast.6 mph73%30.33 "Hg25 mi
5:00 PM40 °FOvercast.6 mph75%30.31 "Hg25 mi
4:00 PM40 °FOvercast.5 mph76%30.32 "Hg25 mi
3:00 PM40 °FOvercast.6 mph72%30.31 "Hg34 mi
Weather by CustomWeather, © 2014

See weather overviewHow to use our weather pages